SAS30M EKCH-LIRN

Flight info

Callsign SAS30M
Flight time N/A
Altitude 35000
Route SALLO M44 KOGIM M602 USEDU DCT ADLIR/N0440F370 DCT OSKAN DCT MAREM DCT APRAQ DCT ADLET DCT EDUGI DCT SUXUB DCT ERIKA
Aircraft A319/M-SDE3FGHIRWY/LB1

Departure

Time N/A
Airport Copenhagen Kastrup Airport (EKCH)

Arrival

Time 2026-04-28 21:37
Airport Naples International Airport (LIRN)
Time Latitude Longitude Altitude Speed Heading
2026-04-28 20:25 48.56505 14.29884 37145 ft 472 kts 185°
2026-04-28 20:25 48.49974 14.29730 37152 ft 469 kts 188°
2026-04-28 20:26 48.43476 14.29543 37166 ft 469 kts 188°
2026-04-28 20:26 48.36929 14.29362 37153 ft 469 kts 188°
2026-04-28 20:27 48.30406 14.29178 37162 ft 468 kts 188°
2026-04-28 20:27 48.23932 14.28982 37167 ft 468 kts 188°
2026-04-28 20:28 48.17408 14.28791 37130 ft 469 kts 188°
2026-04-28 20:28 48.15854 14.28746 37131 ft 469 kts 188°
2026-04-28 20:29 48.10861 14.28599 37137 ft 469 kts 188°
2026-04-28 20:29 48.04327 14.28416 37139 ft 469 kts 188°
2026-04-28 20:30 47.97838 14.28241 37137 ft 469 kts 188°
2026-04-28 20:30 47.91309 14.28057 37137 ft 469 kts 188°
2026-04-28 20:31 47.84765 14.27865 37135 ft 469 kts 188°
2026-04-28 20:31 47.78277 14.27683 37130 ft 469 kts 188°
2026-04-28 20:32 47.71750 14.27503 37119 ft 469 kts 188°
2026-04-28 20:32 47.65208 14.27313 37121 ft 470 kts 188°
2026-04-28 20:33 47.58654 14.27128 37126 ft 470 kts 187°
2026-04-28 20:33 47.52150 14.26958 37124 ft 470 kts 187°
2026-04-28 20:34 47.45618 14.26785 37137 ft 469 kts 188°
2026-04-28 20:34 47.39093 14.26593 37152 ft 469 kts 187°
2026-04-28 20:35 47.32545 14.26408 37145 ft 471 kts 188°
2026-04-28 20:35 47.25993 14.26229 37148 ft 471 kts 188°
2026-04-28 20:36 47.19447 14.26053 37155 ft 470 kts 188°
2026-04-28 20:36 47.12907 14.25866 37159 ft 470 kts 188°
2026-04-28 20:37 47.06361 14.25683 37146 ft 471 kts 188°
2026-04-28 20:37 46.99835 14.25508 37159 ft 472 kts 187°
2026-04-28 20:38 46.93270 14.25332 37161 ft 472 kts 188°
2026-04-28 20:38 46.86701 14.25145 37147 ft 472 kts 187°
2026-04-28 20:39 46.80127 14.24968 37156 ft 472 kts 187°
2026-04-28 20:39 46.74671 14.24828 37155 ft 472 kts 187°
2026-04-28 20:40 46.67039 14.24618 37141 ft 471 kts 187°
2026-04-28 20:40 46.61548 14.24466 37162 ft 471 kts 187°
2026-04-28 20:41 46.55045 14.24290 37170 ft 470 kts 187°
2026-04-28 20:41 46.48506 14.24117 37143 ft 470 kts 187°
2026-04-28 20:42 46.41972 14.23940 37174 ft 468 kts 187°
2026-04-28 20:42 46.35451 14.23769 37180 ft 467 kts 187°
2026-04-28 20:43 46.28991 14.23598 37176 ft 466 kts 187°
2026-04-28 20:43 46.22500 14.23431 37171 ft 466 kts 187°
2026-04-28 20:44 46.16017 14.23261 37170 ft 465 kts 187°
2026-04-28 20:44 46.09580 14.23075 37164 ft 465 kts 187°
2026-04-28 20:45 46.03098 14.22899 37151 ft 464 kts 187°
2026-04-28 20:45 45.96643 14.22737 37161 ft 463 kts 187°
2026-04-28 20:46 45.90252 14.22578 37154 ft 462 kts 187°
2026-04-28 20:46 45.83815 14.22415 37145 ft 462 kts 187°
2026-04-28 20:47 45.77387 14.22237 37141 ft 461 kts 187°
2026-04-28 20:47 45.71004 14.22061 37133 ft 461 kts 187°
2026-04-28 20:48 45.64579 14.21897 37129 ft 461 kts 187°
2026-04-28 20:48 45.58153 14.21742 37126 ft 461 kts 187°
2026-04-28 20:49 45.51736 14.21579 37112 ft 461 kts 187°
2026-04-28 20:49 45.45326 14.21405 37086 ft 461 kts 187°
2026-04-28 20:50 45.38907 14.21237 37088 ft 461 kts 187°
2026-04-28 20:50 45.32528 14.21077 37085 ft 460 kts 187°
2026-04-28 20:51 45.26117 14.20914 37065 ft 460 kts 187°
2026-04-28 20:51 45.19707 14.20740 37077 ft 460 kts 187°
2026-04-28 20:52 45.13289 14.20564 37074 ft 459 kts 187°
2026-04-28 20:52 45.06892 14.20409 37058 ft 460 kts 186°
2026-04-28 20:53 44.97341 14.20172 37079 ft 459 kts 186°
2026-04-28 20:53 44.90942 14.20018 37093 ft 458 kts 186°
2026-04-28 20:54 44.84562 14.19856 37061 ft 458 kts 186°
2026-04-28 20:54 44.78192 14.19691 37069 ft 458 kts 186°
2026-04-28 20:55 44.71814 14.19530 37073 ft 458 kts 186°
2026-04-28 20:55 44.65478 14.19367 37064 ft 458 kts 186°
2026-04-28 20:56 44.59121 14.19197 37058 ft 457 kts 186°
2026-04-28 20:56 44.52748 14.19040 37058 ft 457 kts 186°
2026-04-28 20:57 44.46376 14.18891 37043 ft 457 kts 186°
2026-04-28 20:57 44.40046 14.18736 37055 ft 457 kts 186°
2026-04-28 20:58 44.33673 14.18575 37060 ft 457 kts 186°
2026-04-28 20:58 44.27317 14.18415 37050 ft 457 kts 186°
2026-04-28 20:59 44.20964 14.18260 37055 ft 456 kts 185°
2026-04-28 20:59 44.14653 14.18106 37059 ft 456 kts 186°
2026-04-28 21:00 44.08295 14.17948 37046 ft 456 kts 185°
2026-04-28 21:00 44.01935 14.17795 37054 ft 456 kts 185°
2026-04-28 21:01 43.95636 14.17634 37058 ft 455 kts 186°
2026-04-28 21:01 43.89292 14.17467 37059 ft 455 kts 185°
2026-04-28 21:02 43.82953 14.17305 37058 ft 455 kts 185°
2026-04-28 21:02 43.76612 14.17149 37056 ft 455 kts 186°
2026-04-28 21:03 43.70320 14.16852 37040 ft 454 kts 186°
2026-04-28 21:03 43.63995 14.16493 37044 ft 454 kts 187°
2026-04-28 21:04 43.57667 14.16145 37050 ft 455 kts 186°
2026-04-28 21:04 43.51336 14.15828 37037 ft 455 kts 186°
2026-04-28 21:05 43.45007 14.15529 37044 ft 455 kts 186°
2026-04-28 21:05 43.38712 14.15230 37048 ft 455 kts 186°
2026-04-28 21:06 43.32382 14.14915 37040 ft 455 kts 186°
2026-04-28 21:06 43.26056 14.14596 37045 ft 454 kts 186°
2026-04-28 21:07 43.19728 14.14288 37050 ft 455 kts 186°
2026-04-28 21:07 43.13399 14.13977 37034 ft 455 kts 186°
2026-04-28 21:08 43.07111 14.13675 37045 ft 455 kts 186°
2026-04-28 21:08 43.00778 14.13367 37048 ft 456 kts 186°
2026-04-28 21:09 42.94434 14.13057 37043 ft 456 kts 186°
2026-04-28 21:09 42.88095 14.12742 37048 ft 456 kts 186°
2026-04-28 21:10 42.81752 14.12430 37049 ft 456 kts 186°
2026-04-28 21:10 42.75413 14.12123 37038 ft 456 kts 186°
2026-04-28 21:11 42.69058 14.11823 36631 ft 458 kts 186°
2026-04-28 21:11 42.65873 14.11672 36113 ft 458 kts 186°
2026-04-28 21:11 42.62730 14.11521 35614 ft 458 kts 185°
2026-04-28 21:12 42.59535 14.11368 35117 ft 459 kts 185°
2026-04-28 21:12 42.56337 14.11214 34629 ft 461 kts 185°
2026-04-28 21:12 42.53123 14.11058 34139 ft 462 kts 185°
2026-04-28 21:12 42.49902 14.10902 33604 ft 464 kts 185°
2026-04-28 21:13 42.46668 14.10748 33066 ft 465 kts 185°
2026-04-28 21:13 42.43429 14.10598 32536 ft 466 kts 185°
2026-04-28 21:13 42.40182 14.10813 31836 ft 471 kts 172°
2026-04-28 21:13 42.37032 14.12105 31083 ft 475 kts 160°
2026-04-28 21:14 42.33959 14.13770 30339 ft 476 kts 160°
2026-04-28 21:14 42.30929 14.15439 29542 ft 476 kts 160°
2026-04-28 21:14 42.27853 14.17148 28714 ft 478 kts 160°
2026-04-28 21:14 42.24776 14.18857 27912 ft 479 kts 160°
2026-04-28 21:15 42.21684 14.20565 27129 ft 480 kts 160°
2026-04-28 21:15 42.18582 14.22269 26376 ft 482 kts 160°
2026-04-28 21:15 42.15465 14.23968 25635 ft 483 kts 160°
2026-04-28 21:15 42.12335 14.25669 24906 ft 485 kts 160°
2026-04-28 21:16 42.09236 14.27350 24211 ft 485 kts 159°
2026-04-28 21:16 42.06121 14.29040 23494 ft 481 kts 159°
2026-04-28 21:16 42.03026 14.30724 22753 ft 476 kts 159°
2026-04-28 21:16 41.99965 14.32388 22043 ft 471 kts 159°
2026-04-28 21:17 41.96972 14.34012 21351 ft 467 kts 160°
2026-04-28 21:17 41.93975 14.35638 20678 ft 462 kts 160°
2026-04-28 21:17 41.91008 14.37252 20009 ft 458 kts 159°
2026-04-28 21:17 41.88064 14.38856 19360 ft 455 kts 160°
2026-04-28 21:18 41.85143 14.40443 18726 ft 451 kts 160°
2026-04-28 21:18 41.82238 14.42012 18084 ft 447 kts 160°
2026-04-28 21:18 41.79354 14.43564 17421 ft 442 kts 160°
2026-04-28 21:18 41.76521 14.45084 16782 ft 435 kts 160°
2026-04-28 21:19 41.73736 14.46577 16148 ft 426 kts 160°
2026-04-28 21:19 41.71046 14.48020 15654 ft 416 kts 159°
2026-04-28 21:19 41.68388 14.49446 15171 ft 407 kts 159°
2026-04-28 21:19 41.65793 14.50842 14794 ft 395 kts 159°
2026-04-28 21:20 41.63276 14.52196 14438 ft 383 kts 159°
2026-04-28 21:20 41.60839 14.53503 14085 ft 372 kts 159°
2026-04-28 21:20 41.58463 14.54777 13714 ft 362 kts 159°
2026-04-28 21:20 41.56157 14.56011 13416 ft 352 kts 159°
2026-04-28 21:21 41.53919 14.57209 13150 ft 341 kts 159°
2026-04-28 21:21 41.51747 14.58370 12891 ft 332 kts 159°
2026-04-28 21:21 41.49631 14.59498 12629 ft 323 kts 159°
2026-04-28 21:21 41.47569 14.60596 12379 ft 316 kts 159°
2026-04-28 21:22 41.45578 14.61659 12136 ft 309 kts 159°
2026-04-28 21:22 41.43603 14.62715 11879 ft 302 kts 159°
2026-04-28 21:22 41.41668 14.63746 11627 ft 297 kts 159°
2026-04-28 21:22 41.40380 14.64432 11461 ft 293 kts 159°
2026-04-28 21:23 41.37898 14.65753 11184 ft 285 kts 159°
2026-04-28 21:23 41.36081 14.66718 11013 ft 278 kts 159°
2026-04-28 21:23 41.34299 14.67667 10842 ft 271 kts 159°
2026-04-28 21:23 41.32569 14.68586 10676 ft 265 kts 159°
2026-04-28 21:24 41.30882 14.69481 10533 ft 258 kts 159°
2026-04-28 21:24 41.29231 14.70355 10369 ft 253 kts 159°
2026-04-28 21:24 41.27614 14.71210 10200 ft 247 kts 159°
2026-04-28 21:24 41.26027 14.72049 10035 ft 243 kts 159°
2026-04-28 21:25 41.24480 14.72868 9854 ft 242 kts 159°
2026-04-28 21:25 41.22914 14.73697 9670 ft 242 kts 159°
2026-04-28 21:25 41.21371 14.74586 9487 ft 242 kts 152°
2026-04-28 21:25 41.19938 14.75761 9304 ft 242 kts 149°
2026-04-28 21:26 41.18510 14.76935 9122 ft 241 kts 149°
2026-04-28 21:26 41.17088 14.78097 8943 ft 239 kts 149°
2026-04-28 21:26 41.15662 14.79251 8762 ft 239 kts 152°
2026-04-28 21:26 41.14121 14.79856 8582 ft 234 kts 181°
2026-04-28 21:27 41.12563 14.79326 8402 ft 233 kts 211°
2026-04-28 21:27 41.11431 14.77822 8229 ft 233 kts 237°
2026-04-28 21:27 41.10579 14.75991 8055 ft 234 kts 238°
2026-04-28 21:27 41.09730 14.74162 7829 ft 230 kts 238°
2026-04-28 21:28 41.08899 14.72376 7579 ft 225 kts 238°
2026-04-28 21:28 41.08358 14.71215 7416 ft 222 kts 237°
2026-04-28 21:28 41.07552 14.69493 7172 ft 217 kts 237°
2026-04-28 21:28 41.06532 14.67317 7040 ft 200 kts 237°
2026-04-28 21:29 41.05815 14.65809 6906 ft 189 kts 237°
2026-04-28 21:29 41.05134 14.64355 6681 ft 183 kts 237°
2026-04-28 21:29 41.04685 14.63395 6516 ft 180 kts 237°
2026-04-28 21:29 41.04042 14.62016 6261 ft 176 kts 237°
2026-04-28 21:30 41.03404 14.60646 6003 ft 172 kts 237°
2026-04-28 21:30 41.02780 14.59311 5749 ft 168 kts 237°
2026-04-28 21:30 41.02172 14.58008 5505 ft 163 kts 237°
2026-04-28 21:30 41.01576 14.56735 5278 ft 167 kts 237°
2026-04-28 21:31 41.00955 14.55407 5029 ft 170 kts 237°
2026-04-28 21:31 41.00333 14.54072 4777 ft 170 kts 237°
2026-04-28 21:31 40.99711 14.52743 4518 ft 170 kts 238°
2026-04-28 21:31 40.99091 14.51416 4271 ft 169 kts 237°
2026-04-28 21:32 40.98479 14.50108 4023 ft 169 kts 237°
2026-04-28 21:32 40.97860 14.48786 3774 ft 168 kts 237°
2026-04-28 21:32 40.97244 14.47470 3528 ft 167 kts 237°
2026-04-28 21:32 40.96631 14.46162 3289 ft 167 kts 237°
2026-04-28 21:33 40.96019 14.44859 3041 ft 166 kts 237°
2026-04-28 21:33 40.95409 14.43558 2795 ft 166 kts 237°
2026-04-28 21:33 40.94800 14.42260 2555 ft 166 kts 237°
2026-04-28 21:33 40.94197 14.40973 2308 ft 162 kts 237°
2026-04-28 21:34 40.93626 14.39757 2085 ft 148 kts 237°
2026-04-28 21:34 40.93103 14.38642 1867 ft 139 kts 238°
2026-04-28 21:34 40.92597 14.37570 1665 ft 139 kts 237°
2026-04-28 21:34 40.92083 14.36481 1456 ft 140 kts 237°
2026-04-28 21:35 40.91571 14.35392 1259 ft 139 kts 238°
2026-04-28 21:35 40.91060 14.34307 1045 ft 138 kts 238°
2026-04-28 21:35 40.90556 14.33237 838 ft 137 kts 239°
2026-04-28 21:35 40.90054 14.32164 645 ft 137 kts 238°
2026-04-28 21:36 40.89548 14.31082 433 ft 140 kts 238°
2026-04-28 21:36 40.89030 14.29986 249 ft 138 kts 238°
2026-04-28 21:36 40.88591 14.29055 269 ft 99 kts 238°
2026-04-28 21:36 40.88301 14.28438 293 ft 54 kts 238°
2026-04-28 21:37 40.88153 14.28124 305 ft 19 kts 238°
2026-04-28 21:37 40.88058 14.28055 308 ft 15 kts 153°
2026-04-28 21:37 40.88011 14.28097 307 ft 3 kts 121°
2026-04-28 21:37 40.88017 14.28130 305 ft 1 kts 59°
2026-04-28 21:38 40.88030 14.28160 305 ft 7 kts 59°
2026-04-28 21:38 40.88062 14.28234 302 ft 10 kts 63°
2026-04-28 21:38 40.88065 14.28289 300 ft 4 kts 94°
2026-04-28 21:38 40.88061 14.28345 299 ft 9 kts 95°
2026-04-28 21:39 40.88052 14.28421 297 ft 6 kts 122°
2026-04-28 21:39 40.88010 14.28425 299 ft 6 kts 187°
2026-04-28 21:39 40.87968 14.28406 302 ft 6 kts 213°
2026-04-28 21:39 40.87935 14.28377 301 ft 5 kts 218°
2026-04-28 21:40 40.87914 14.28348 302 ft 3 kts 226°
2026-04-28 21:40 40.87897 14.28345 302 ft 3 kts 181°
2026-04-28 21:40 40.87874 14.28342 302 ft 3 kts 187°
2026-04-28 21:40 40.87871 14.28342 303 ft 0 kts 187°